Wind_Speed
13 13 13 13 13 13 12 12 11 10 10 10 11 11 11 11 11 11 12 11 10 10 11 11 10 9 9 9 9 8 8 9 10 11 12 13 13 13 14 16 19 21 19 19 19 17 18 19 21 23 22 21 21 18 16 15 12 10 7 6 6 4 3 2 2 3 5 3 3 6 7 6 7 9 9 9 8 8 12 12 10 11 11 12 13 14 14 14
14 13 13 13 13 13 12 12 11 11 11 11 12 12 12 11 11 11 12 12 11 10 10 11 11 10 9 9 9 9 10 10 10 12 13 13 13 12 13 14 16 20 20 19 17 15 14 15 17 20 21 22 21 20 17 15 14 10 8 7 6 4 5 5 5 5 6 4 5 7 8 7 7 8 9 8 7 8 11 12 10 10 11 12 12 13 15 16
14 13 13 13 13 12 12 12 12 12 12 12 13 13 13 12 12 11 12 12 12 11 10 10 11 11 10 10 10 10 11 11 11 12 13 14 13 12 12 12 13 16 18 18 16 14 12 11 12 15 19 21 21 21 19 16 14 11 10 8 6 6 7 7 7 6 6 8 7 7 8 9 8 8 9 8 7 6 8 9 9 11 11 12 12 12 14 17
14 14 13 13 13 12 13 13 13 13 13 14 14 14 14 13 13 12 12 12 13 12 11 10 10 10 10 10 10 11 11 12 13 12 12 14 14 12 11 11 12 14 16 19 19 17 16 15 14 14 17 20 21 22 21 19 15 12 13 8 6 8 7 7 8 7 8 8 8 8 9 8 8 8 9 9 7 6 7 7 7 10 12 11 11 11 13 17
15 14 13 13 13 13 13 14 14 14 14 15 15 15 15 15 14 13 12 12 13 12 12 11 10 10 10 10 10 11 10 10 13 13 13 14 15 14 11 10 12 14 16 19 21 20 20 19 18 18 19 20 23 24 22 21 16 15 15 10 7 8 7 9 10 8 8 8 8 9 8 8 8 7 8 10 8 5 7 8 7 10 12 11 11 11 13 16
16 15 14 13 13 14 14 14 15 15 15 15 15 16 16 16 15 14 13 12 12 12 12 11 11 10 10 10 10 11 11 10 12 12 13 15 15 15 13 12 13 14 16 18 21 22 21 21 20 20 21 20 24 24 22 23 21 18 15 11 9 10 11 11 11 9 9 9 8 8 8 9 8 7 8 11 9 6 8 11 9 9 11 11 11 10 12 15
16 15 14 14 14 14 15 15 15 15 15 16 16 16 16 16 15 14 14 13 12 11 11 11 11 10 10 10 10 11 13 15 14 12 13 15 15 15 14 14 15 15 16 17 21 23 23 22 21 20 20 22 25 23 22 25 24 21 17 13 11 12 15 13 12 11 10 10 9 9 9 9 8 7 8 11 10 8 9 12 10 9 11 12 11 11 11 13
16 15 14 14 14 15 15 15 16 16 16 16 16 16 16 16 15 15 14 13 12 11 11 10 11 11 10 9 10 11 13 17 17 15 14 14 14 14 14 15 16 16 16 17 18 21 22 22 19 19 20 21 23 23 25 26 23 24 21 16 13 14 16 16 15 13 12 10 8 10 9 7 7 8 9 9 9 9 9 12 12 9 11 12 11 11 12 13
16 15 15 15 15 15 15 16 16 17 16 16 17 17 17 17 16 15 14 13 12 11 11 11 11 11 10 9 9 11 13 16 17 16 17 16 15 14 13 15 16 16 16 16 17 20 22 22 19 17 18 18 21 23 26 24 18 23 24 19 17 15 17 18 16 14 13 10 9 9 7 6 8 10 10 10 11 11 11 12 12 10 10 11 11 11 12 14
17 16 16 16 16 16 16 16 17 17 17 17 17 17 17 17 17 16 15 14 12 11 11 11 13 12 11 9 9 10 13 15 16 17 18 18 18 16 15 14 16 17 17 17 18 19 20 20 17 17 17 17 20 22 25 24 16 19 24 22 20 17 19 20 17 15 13 11 11 9 6 6 10 11 9 11 14 12 12 13 12 10 9 10 11 11 12 14
19 18 17 17 17 16 16 16 16 17 17 17 17 17 18 18 18 17 16 15 13 12 11 12 13 14 12 10 10 11 12 14 15 18 19 19 20 19 18 17 16 16 17 17 17 17 18 18 18 18 16 15 19 19 23 26 22 22 24 22 21 20 21 22 20 18 14 12 11 10 8 8 12 14 11 11 15 13 12 12 10 10 10 11 12 12 13 15
19 18 18 17 17 16 16 16 16 17 17 18 18 18 18 19 19 18 17 16 14 12 11 12 14 14 14 12 11 11 11 13 15 17 19 20 21 21 20 19 18 17 17 17 16 15 18 21 21 18 15 15 15 14 18 25 26 25 25 22 19 18 21 22 22 19 16 14 11 11 10 11 15 15 13 14 15 14 13 12 11 10 10 11 12 13 14 17
19 18 18 18 17 16 16 16 16 16 17 18 18 18 19 19 19 19 18 17 16 13 12 13 14 13 13 13 13 11 10 12 13 15 18 20 21 22 22 21 21 20 18 18 18 18 20 23 22 18 16 15 11 13 17 19 23 25 24 23 19 17 20 21 22 20 18 16 13 13 12 12 14 13 13 15 15 15 14 12 12 11 11 11 12 14 15 18
20 19 18 18 18 17 16 16 16 16 16 17 17 18 19 20 19 19 19 18 17 15 14 13 13 12 12 12 12 12 10 10 12 13 16 19 21 22 22 22 23 22 20 19 20 22 23 23 22 20 21 17 11 15 17 12 17 21 20 21 19 18 18 18 20 21 20 18 16 15 12 11 12 13 15 15 14 14 14 14 13 12 11 11 11 13 15 17
20 19 19 19 18 18 17 18 17 16 16 16 16 16 18 19 19 18 18 18 17 15 14 13 12 11 11 10 10 11 11 10 11 12 14 18 21 22 22 22 23 22 21 20 21 23 24 23 25 24 22 21 17 14 13 11 13 16 17 19 20 20 16 14 18 22 21 18 17 16 14 12 11 15 17 14 12 12 12 14 14 13 12 11 11 12 14 16
21 20 19 19 19 18 19 19 18 17 17 16 16 16 17 18 18 18 17 17 16 14 12 11 10 9 8 8 8 8 9 9 9 11 13 16 19 22 23 23 22 22 22 22 21 23 25 25 26 26 21 20 21 16 11 13 15 16 19 19 19 22 20 16 18 22 22 17 17 19 16 12 10 14 17 14 12 11 11 13 13 13 12 11 11 11 13 15
21 20 20 20 20 19 19 19 19 18 17 16 15 15 16 17 18 17 16 15 13 12 11 8 8 8 6 6 7 7 10 11 10 9 11 14 17 21 23 23 22 22 22 22 22 25 27 27 27 26 23 20 19 17 15 17 18 18 20 20 18 20 22 20 17 20 24 19 17 21 19 14 8 11 17 16 13 13 12 12 12 13 13 12 12 12 13 15
21 20 19 20 21 20 20 20 20 19 17 15 15 15 16 16 17 16 14 13 11 10 8 6 6 5 4 7 8 8 9 10 10 9 9 12 15 18 21 22 22 21 21 22 24 27 29 28 26 23 22 23 22 23 23 19 17 19 20 21 20 18 21 23 18 17 24 24 19 20 23 20 13 10 14 15 15 15 14 13 12 12 13 12 13 14 13 14
20 20 19 19 20 21 21 21 20 19 17 14 13 14 15 15 16 15 12 11 10 9 7 6 6 3 6 10 10 8 7 7 7 7 7 9 12 17 19 21 20 19 20 21 25 29 30 27 25 25 27 30 30 28 26 16 11 16 19 20 20 19 20 24 20 14 18 24 24 23 22 22 19 15 15 15 15 15 14 15 15 14 14 14 14 15 15 14
20 20 19 18 19 20 21 20 19 17 14 12 11 12 13 13 13 12 10 9 8 8 8 8 7 6 7 9 8 7 6 5 6 6 6 6 9 14 18 20 19 19 18 19 23 29 31 28 28 33 32 29 29 27 24 16 10 12 15 17 19 19 18 21 22 17 15 19 22 24 23 22 21 19 17 17 17 16 16 18 19 17 15 15 15 15 16 15
20 20 19 18 19 20 20 19 17 15 13 11 11 12 12 12 11 10 11 11 10 9 8 8 7 7 7 6 5 5 6 6 6 6 5 5 7 9 15 19 18 20 19 17 19 25 30 30 31 34 30 22 22 24 24 21 16 12 13 15 17 18 17 16 19 18 17 19 20 20 23 24 23 21 19 18 20 19 19 20 19 17 15 15 16 16 16 16
20 19 19 18 19 19 19 19 16 14 13 12 12 13 13 13 11 11 12 13 13 11 9 9 7 6 5 4 3 2 3 4 5 6 4 4 5 8 13 16 16 17 19 19 19 22 27 31 30 28 25 21 19 21 23 23 20 16 15 15 17 18 18 16 17 17 16 20 22 19 20 23 22 23 21 20 22 23 21 21 18 16 15 16 17 17 17 17
21 19 18 17 18 19 18 18 16 14 13 13 13 14 14 13 12 13 12 12 13 13 12 10 7 6 5 4 2 2 2 2 5 7 5 4 6 10 13 15 15 14 18 22 22 22 24 27 29 24 21 22 20 19 21 22 22 21 19 18 18 16 16 17 18 18 18 19 21 20 20 22 21 23 24 22 23 24 23 22 19 19 18 18 17 16 16 17
21 18 17 16 16 17 17 17 16 15 14 14 14 14 14 13 13 13 13 12 13 14 12 10 7 5 5 4 3 3 5 5 5 7 7 6 6 8 11 14 15 15 18 22 23 24 22 19 23 24 20 22 22 20 22 22 23 24 23 22 19 15 16 16 13 12 17 20 21 20 20 23 23 23 24 24 24 25 25 24 23 22 22 20 19 19 18 17
21 17 16 15 15 17 17 17 16 15 14 14 14 14 14 14 13 13 13 11 10 12 10 8 8 6 5 5 5 5 7 8 9 10 10 9 6 6 10 15 17 16 17 20 22 26 25 18 20 22 21 23 24 23 23 23 22 23 24 26 23 17 15 16 13 9 14 20 23 23 20 20 25 26 26 25 24 26 27 27 27 25 25 24 23 22 20 18
20 17 14 14 14 15 16 16 16 15 15 15 14 14 13 13 12 11 11 7 6 9 8 7 6 6 5 5 7 8 7 7 9 8 7 7 7 7 9 12 15 16 15 17 20 24 25 21 20 20 21 23 25 25 24 23 23 22 21 23 26 22 16 15 15 15 17 17 19 24 23 20 23 28 30 28 26 27 29 31 31 28 27 27 25 23 21 20
19 16 13 13 12 13 15 15 15 15 14 15 14 13 12 11 10 8 7 5 7 8 7 6 5 7 7 8 8 5 2 5 6 7 9 8 8 9 8 8 11 14 13 14 19 23 23 23 21 19 20 22 24 26 24 23 25 22 16 16 22 26 23 18 15 17 19 17 16 20 23 23 24 25 27 29 30 28 29 33 33 30 29 28 25 24 23 21
18 16 13 12 12 12 14 14 15 15 15 15 14 13 12 10 9 5 3 4 5 6 5 5 6 8 9 11 10 4 5 7 6 9 12 9 10 9 7 9 11 12 13 17 20 19 19 26 26 21 21 24 24 23 22 23 26 22 14 11 16 22 26 24 20 19 19 19 21 21 20 19 23 24 22 23 31 32 30 33 34 33 31 29 26 24 23 21
18 16 13 11 11 12 14 14 15 15 15 15 14 13 11 9 7 3 3 5 4 6 6 4 5 7 7 8 11 9 7 5 5 9 10 9 10 10 8 10 12 13 14 19 22 18 15 21 27 25 24 26 24 20 18 22 25 22 15 10 12 16 21 24 23 22 19 19 24 25 23 18 18 25 26 23 28 32 30 30 33 35 33 30 27 25 24 22
17 16 14 13 12 13 14 14 15 15 15 14 14 12 10 9 6 3 5 4 3 4 5 4 5 5 4 4 7 10 9 8 6 6 6 8 10 10 11 11 11 13 14 17 22 22 18 16 20 25 26 25 24 21 19 20 21 20 17 15 13 14 18 20 22 23 19 19 24 26 26 21 16 22 29 28 28 29 28 28 29 32 34 32 30 27 24 23
18 17 16 15 14 13 13 13 14 15 15 13 12 12 10 7 4 6 5 5 4 3 3 4 5 5 5 4 5 8 8 9 8 3 2 3 5 7 9 7 8 11 13 17 21 22 22 21 20 22 22 21 22 23 22 20 20 19 18 17 16 15 16 17 20 22 15 14 21 25 26 25 22 23 25 25 27 26 27 29 28 29 33 35 32 29 27 25
18 18 18 16 15 13 12 11 12 13 13 12 11 10 8 6 6 6 4 4 4 1 2 1 4 6 8 6 6 7 5 6 6 3 1 1 1 5 8 8 8 9 11 14 16 19 23 26 25 21 20 20 21 23 23 22 22 23 21 20 18 14 13 13 14 16 15 16 19 21 23 27 29 28 24 22 23 23 25 29 29 27 29 35 34 30 29 28
18 18 17 16 15 13 12 11 10 10 10 11 10 7 5 6 6 5 2 3 4 3 3 4 6 9 7 4 5 6 4 6 6 3 2 1 1 5 10 13 13 11 10 9 9 14 18 22 25 26 24 23 25 26 26 25 26 27 26 25 21 13 9 10 10 11 13 17 20 21 21 23 28 29 28 27 24 19 20 25 28 27 26 31 33 30 29 28
18 18 17 17 15 14 12 11 10 9 9 10 8 4 6 8 6 5 3 2 6 6 6 7 7 8 6 4 5 5 3 6 7 4 2 1 3 3 4 9 13 12 9 10 11 13 14 13 17 24 26 24 28 30 26 22 24 28 27 25 24 20 13 9 9 11 12 13 18 22 18 15 18 21 22 26 28 24 21 20 23 25 24 26 29 29 28 27
18 18 18 17 16 14 12 11 10 8 8 9 6 6 9 8 4 3 3 2 4 4 6 8 6 4 4 3 6 6 3 5 7 5 1 1 3 3 1 5 11 10 8 9 11 12 16 14 10 18 25 23 25 29 27 22 21 24 27 27 28 27 20 14 11 13 14 11 13 21 19 13 11 10 10 16 23 27 28 26 25 26 26 26 27 28 29 29
19 18 18 17 16 15 14 12 10 8 7 6 6 8 8 7 3 1 4 5 2 1 4 6 4 1 3 2 4 6 7 6 5 4 2 2 2 4 4 6 10 10 8 8 7 8 14 15 9 13 22 23 22 24 26 27 23 20 26 30 28 25 22 19 15 15 14 11 11 18 21 18 14 14 14 16 18 22 27 30 31 32 32 30 27 28 30 31
18 18 17 16 15 14 13 11 9 8 5 3 7 9 6 7 9 6 8 8 5 3 3 3 3 2 3 4 2 5 8 6 4 3 3 2 3 6 4 5 10 10 10 10 7 7 11 15 13 11 16 20 23 24 26 28 26 21 24 27 25 23 23 21 15 12 13 10 10 17 20 20 17 14 15 21 25 24 24 26 27 31 35 35 32 31 32 33
18 17 15 14 13 13 12 10 8 5 1 3 7 11 8 6 10 11 10 8 4 3 3 3 4 4 4 5 5 6 8 6 4 4 4 3 5 9 6 4 7 9 10 10 7 6 10 16 17 13 15 18 20 25 26 29 31 27 22 21 25 24 23 23 17 11 11 10 9 15 19 20 20 15 9 14 23 26 26 26 26 27 31 35 36 35 35 35
18 16 14 13 13 12 10 9 6 5 3 3 5 9 8 6 8 11 10 7 3 2 3 4 4 3 3 5 7 7 6 6 6 6 5 3 3 9 8 6 6 8 10 10 7 7 8 12 14 12 15 16 16 23 28 29 32 32 26 22 27 27 23 24 22 16 12 9 8 12 14 16 20 21 14 11 15 19 21 23 26 27 29 31 34 35 37 37
16 13 12 14 14 11 9 9 7 5 2 6 6 7 8 6 6 9 10 6 3 3 3 3 3 3 4 6 7 6 6 7 8 6 6 4 4 8 9 9 9 10 11 10 8 8 8 11 14 12 12 16 20 26 28 27 29 34 34 29 26 27 26 25 25 25 20 11 7 7 9 11 15 18 19 14 13 15 16 19 22 24 26 27 30 34 36 38
14 11 11 14 15 11 9 9 6 1 3 5 7 9 9 7 4 5 8 7 3 4 4 3 4 5 6 7 7 7 7 8 8 7 7 7 7 7 9 11 10 8 9 8 7 8 9 11 16 17 15 17 21 23 25 27 27 28 34 37 32 28 27 22 20 27 27 19 13 9 6 7 7 9 15 15 14 14 15 17 19 21 22 24 27 31 35 37
14 11 12 15 14 11 9 8 6 2 4 4 5 7 8 7 5 3 5 4 2 3 3 3 4 5 6 7 7 8 9 9 10 9 9 8 7 7 10 13 13 8 5 5 7 10 11 11 15 20 20 20 22 22 22 25 25 22 24 33 36 34 32 26 20 24 28 24 20 15 11 9 5 5 8 9 10 11 12 14 16 18 19 21 25 27 31 37
14 11 13 15 15 12 8 6 6 6 4 3 3 4 6 5 4 3 3 4 3 3 4 4 5 5 6 8 8 8 9 9 10 9 9 9 8 10 13 14 12 7 4 4 5 7 10 12 15 19 20 21 25 25 22 22 24 26 26 27 32 36 36 30 21 19 23 25 23 16 11 12 11 8 7 7 7 8 9 11 12 14 16 18 22 25 27 34
14 12 15 16 14 11 7 7 8 8 4 3 3 2 3 3 3 3 2 4 5 4 4 6 6 6 7 8 8 8 8 8 8 8 9 9 9 12 13 12 11 5 3 5 6 6 9 11 13 15 15 15 19 22 25 26 23 28 32 29 28 31 29 23 17 14 16 22 25 17 11 13 13 11 12 11 11 10 11 11 11 12 13 13 17 22 24 28
15 13 16 16 14 11 10 11 9 8 6 5 5 3 1 3 5 6 3 4 6 6 5 7 7 8 8 8 9 9 9 9 9 9 10 10 10 12 11 10 10 6 6 8 8 8 10 11 11 13 12 11 10 9 14 20 18 23 33 32 28 29 28 23 20 19 18 20 24 21 16 14 10 8 10 10 11 11 9 9 9 9 13 16 19 22 23 23
15 12 14 14 12 12 12 11 9 7 6 5 4 4 3 2 3 5 4 4 7 8 8 8 8 9 11 11 11 12 11 10 11 11 12 12 12 11 11 11 10 8 10 12 9 8 10 12 15 16 18 20 15 7 4 6 9 14 23 24 22 27 33 29 24 25 24 20 24 23 18 15 12 8 7 7 9 11 10 9 9 6 9 17 23 24 23 22
16 14 15 12 10 10 10 9 9 7 6 5 3 4 4 3 3 3 3 4 6 6 8 10 10 10 12 13 13 14 13 12 12 13 14 15 14 12 13 13 12 12 13 12 10 9 10 13 16 19 23 28 28 22 15 14 15 14 15 14 13 18 29 33 30 30 26 19 22 24 19 19 18 10 6 10 14 16 15 13 11 7 5 9 15 19 20 20
15 15 16 13 10 9 9 10 9 8 7 6 5 5 5 4 4 3 2 3 4 4 5 8 8 8 11 13 14 13 12 13 13 13 12 12 12 13 14 13 13 15 14 11 11 11 11 15 16 18 23 27 29 28 22 19 21 20 18 17 13 12 18 26 30 33 31 23 22 21 16 19 22 15 11 16 19 17 15 12 12 12 9 6 7 10 12 13
16 14 14 12 11 10 10 11 9 7 7 6 5 5 5 4 5 4 3 3 3 4 5 5 8 9 10 11 12 12 13 13 12 12 12 12 13 14 15 14 13 13 12 11 13 11 11 14 14 15 21 24 27 29 26 23 24 23 22 20 18 15 16 19 23 28 32 31 27 20 13 13 18 18 18 19 18 17 16 14 15 15 12 10 8 8 9 10
16 14 13 12 11 11 11 10 7 5 6 7 5 5 6 4 5 5 4 4 3 5 6 6 8 11 10 10 10 11 12 12 14 15 14 14 16 15 15 14 11 10 11 11 12 12 12 14 12 13 19 21 23 26 26 25 24 24 25 22 20 19 18 19 21 24 30 32 29 27 23 18 17 19 21 19 17 19 20 20 19 17 15 13 11 11 12 11
16 14 12 11 10 10 9 7 6 5 6 6 4 5 7 5 6 6 5 4 3 4 7 8 9 10 10 10 10 10 11 12 14 16 16 17 19 17 16 16 13 12 13 12 13 14 13 13 12 12 18 20 19 21 24 25 24 26 27 24 22 20 18 19 21 24 28 28 25 27 29 28 28 29 27 23 21 21 23 24 24 22 19 17 14 13 14 13
17 14 12 11 9 8 7 5 5 5 4 4 5 7 8 6 6 7 5 4 4 4 7 8 8 8 8 8 9 11 12 13 15 17 18 20 21 21 21 22 20 20 19 17 17 17 15 14 12 12 16 18 16 17 20 21 20 24 28 26 24 21 18 21 23 24 27 27 24 25 28 33 39 40 36 32 30 27 24 25 28 27 23 20 18 16 15 15
Wind_Direction
338 338 337 336 336 336 336 336 337 338 337 333 329 325 321 319 318 314 311 308 303 296 289 284 277 270 263 260 256 252 245 233 222 219 221 226 231 231 232 229 223 226 224 221 222 219 219 217 214 213 211 214 218 217 215 211 211 215 213 224 236 224 208 149 103 110 108 132 162 138 138 132 143 165 170 169 168 166 171 176 175 177 180 185 192 193 188 180
339 339 339 338 338 338 338 338 338 338 336 334 331 327 325 323 322 319 314 311 306 299 291 285 279 271 262 256 252 248 245 240 230 224 224 229 235 233 233 232 229 231 230 227 224 221 223 225 225 221 217 217 220 222 221 218 218 218 216 228 236 217 210 190 163 138 126 147 161 142 139 140 149 163 169 175 178 175 183 192 190 187 185 189 193 190 187 181
340 341 341 339 338 339 339 337 335 335 334 333 330 327 326 326 325 322 317 312 307 302 294 286 281 275 265 255 250 246 243 242 237 230 228 231 235 235 232 230 229 233 234 231 225 219 220 222 224 224 226 225 224 226 227 224 223 223 217 226 243 215 205 196 178 162 147 140 143 145 139 148 164 165 166 174 186 187 197 208 205 198 192 196 191 183 187 181
341 341 342 340 339 340 339 336 334 334 335 334 333 330 328 329 328 325 320 311 305 303 299 292 284 277 269 258 248 244 244 245 242 235 231 232 234 233 231 226 224 229 229 226 221 216 215 213 206 206 219 226 228 229 230 227 222 229 221 215 237 212 195 200 186 167 158 141 140 150 139 150 167 164 165 169 179 192 205 212 203 200 199 202 193 180 188 183
340 341 342 341 340 340 340 337 335 336 337 337 336 334 332 331 329 326 322 312 306 304 303 300 291 282 273 262 249 241 239 246 246 235 230 232 231 230 226 220 220 224 223 222 221 218 217 214 206 202 207 215 225 228 230 230 222 228 227 212 212 196 189 207 193 168 159 146 142 145 142 161 165 153 156 157 165 183 203 206 189 192 197 199 193 181 187 183
338 338 339 339 338 338 338 338 336 337 338 338 337 337 335 332 329 326 321 314 308 307 306 304 299 289 276 265 252 239 226 232 243 233 227 230 228 224 219 215 218 221 219 218 220 221 219 215 211 210 207 208 220 223 228 233 225 227 232 224 212 193 198 208 194 179 163 147 143 146 150 163 158 146 148 151 169 181 188 195 183 183 192 192 187 179 183 181
337 336 336 335 334 334 335 336 336 337 338 337 337 337 336 334 331 326 321 316 310 307 307 306 303 294 282 268 254 243 228 229 238 230 224 226 226 221 213 211 215 218 219 216 216 219 221 220 219 217 213 213 218 218 223 231 227 227 228 225 218 199 204 209 198 190 180 164 156 156 153 155 154 156 162 162 181 190 179 187 185 185 185 182 181 176 179 179
336 337 334 332 331 330 331 331 333 335 336 336 335 336 336 336 332 327 323 318 311 308 308 307 306 299 287 274 258 248 235 233 235 231 226 224 224 218 210 210 212 215 218 218 218 220 224 225 224 221 219 221 223 219 222 229 230 231 225 221 222 206 203 209 204 197 191 186 177 167 157 162 169 168 174 173 187 196 182 185 189 191 183 176 177 173 173 177
332 336 335 333 330 328 327 326 327 328 331 333 332 334 336 336 333 330 327 322 313 306 309 312 310 303 293 284 268 256 244 237 234 232 230 226 224 217 209 208 209 212 216 217 217 218 222 225 225 224 222 224 227 225 226 228 233 238 230 223 224 211 204 209 208 202 197 198 194 181 168 186 188 173 177 179 188 196 185 185 189 189 184 179 177 173 173 179
326 330 331 330 329 328 326 324 324 323 325 327 327 331 333 333 332 332 331 325 314 304 309 313 310 305 299 292 278 263 250 242 235 229 229 229 226 219 211 207 204 207 212 215 216 217 219 221 224 226 224 224 229 230 228 223 223 237 234 225 223 214 208 209 210 206 203 208 203 194 193 209 200 180 180 188 185 186 183 187 190 183 181 182 179 176 177 180
322 325 326 326 327 327 327 326 324 323 322 322 324 327 327 327 329 332 332 327 318 307 307 311 311 308 303 295 281 267 254 246 238 230 228 227 226 221 214 208 202 200 206 212 215 218 215 213 217 222 223 225 230 232 232 225 218 230 234 227 226 223 216 213 212 208 207 220 215 204 207 217 208 185 180 196 183 178 183 183 182 175 175 180 179 179 181 182
319 321 322 324 326 327 327 326 325 324 322 322 323 324 323 322 324 329 330 327 322 313 307 309 312 309 305 299 285 271 260 252 243 234 230 227 227 225 218 212 207 201 203 205 205 209 208 208 211 213 217 221 226 231 235 231 224 229 235 232 234 236 230 221 215 211 212 224 220 208 211 217 214 190 182 196 180 175 184 179 176 171 171 177 179 181 183 186
319 321 323 324 326 327 326 324 324 323 323 323 322 322 320 318 320 324 327 326 323 317 312 311 312 310 304 298 288 276 263 254 247 238 232 229 228 227 222 217 216 212 207 203 198 198 202 207 207 204 212 213 217 228 229 234 230 229 236 236 237 244 241 229 219 214 215 221 214 207 214 216 212 197 194 197 181 179 183 180 181 175 174 179 180 184 187 192
321 323 325 326 327 327 326 324 324 324 322 321 321 321 318 316 318 319 321 323 322 319 316 314 314 312 306 298 291 283 270 255 246 238 232 229 228 229 225 220 222 220 215 208 200 196 197 202 203 203 212 207 207 229 226 233 233 227 232 236 235 239 239 228 219 215 214 220 213 207 220 225 210 202 203 198 186 186 184 184 189 183 180 180 182 188 191 195
322 324 326 326 327 327 326 325 325 325 322 320 320 320 317 315 315 315 317 319 321 320 318 319 318 317 316 305 292 285 278 264 249 240 232 226 225 227 227 223 224 223 217 211 207 200 193 195 201 203 211 211 209 222 224 228 231 221 222 227 227 230 229 219 216 213 210 218 214 206 220 231 214 201 204 199 189 193 191 189 192 191 188 184 186 191 194 196
322 324 326 326 326 326 326 325 326 326 323 320 319 320 319 316 315 314 314 316 319 319 320 321 318 320 319 311 304 295 291 284 262 247 237 228 223 224 226 224 224 223 218 212 209 203 192 191 202 205 208 216 216 217 223 225 223 216 218 221 220 221 222 222 221 214 208 211 213 208 216 228 215 199 206 211 203 203 203 198 196 196 195 192 192 193 196 197
322 324 327 326 326 326 325 324 325 325 324 321 318 320 320 317 315 314 315 319 321 321 322 319 318 321 309 306 314 300 297 297 283 264 247 236 228 224 225 224 223 222 218 214 209 203 196 192 200 206 206 213 215 212 218 221 215 211 214 220 221 217 220 220 217 214 210 208 213 214 217 223 210 191 206 220 218 212 210 208 204 202 200 199 200 200 199 200
321 323 326 326 325 325 325 325 324 323 323 321 318 319 321 318 315 316 319 321 322 324 324 317 324 327 280 285 300 293 294 296 293 285 260 244 235 229 226 224 223 219 216 215 209 203 199 195 199 207 209 211 210 206 211 216 213 208 209 216 219 217 218 216 212 214 212 211 214 217 220 225 223 200 206 219 220 216 215 216 218 216 212 208 206 207 204 203
320 321 324 325 325 325 325 326 325 324 323 320 317 319 323 323 320 318 316 317 321 321 311 302 308 271 247 278 295 300 304 301 301 303 278 253 239 232 228 225 223 218 214 214 209 203 198 195 198 206 210 211 209 207 210 215 214 212 214 218 218 218 220 217 214 213 207 211 219 221 224 227 225 217 214 220 223 220 217 217 225 229 224 218 213 212 209 205
321 319 322 324 325 327 327 327 327 326 324 320 315 319 325 326 320 311 309 313 313 305 293 290 291 272 267 285 296 304 315 318 315 315 307 272 242 235 232 226 222 216 211 209 208 204 199 197 204 208 209 211 212 211 212 218 224 217 219 225 223 224 226 218 215 216 207 213 222 223 228 230 226 223 220 221 226 225 219 216 223 226 221 217 215 215 211 207
322 318 320 324 327 330 329 328 329 328 326 321 318 322 326 325 317 307 313 318 310 302 297 291 291 288 286 291 296 309 321 323 315 315 321 284 245 233 232 228 223 217 207 199 201 204 203 206 213 213 210 211 216 216 215 219 226 224 223 229 229 227 227 220 216 220 217 220 226 223 228 232 228 225 222 221 225 226 222 219 221 219 218 218 214 215 216 213
324 318 317 322 328 332 330 328 330 330 326 323 322 325 326 325 319 311 316 318 312 310 305 299 293 285 283 288 295 312 325 323 312 312 323 290 233 214 227 226 219 219 209 196 192 198 207 214 217 217 215 213 216 218 217 219 223 226 229 233 236 230 228 228 224 221 217 221 227 225 229 234 230 228 226 224 225 227 226 224 224 222 221 219 213 214 218 217
324 318 314 319 327 330 331 331 331 330 328 327 326 325 324 322 317 314 315 315 308 305 303 300 294 284 285 282 270 277 283 274 281 291 304 289 230 216 227 221 210 214 209 202 197 198 210 219 219 217 217 217 217 214 211 215 222 226 229 233 236 231 225 229 228 223 222 224 227 229 236 239 234 230 228 226 226 228 230 230 229 228 222 217 216 221 224 221
323 319 312 313 322 326 330 332 330 329 329 328 325 322 320 318 316 314 313 310 302 297 294 289 284 286 287 273 252 253 265 258 257 276 286 276 252 232 228 217 209 212 210 208 208 212 218 222 221 217 216 215 213 213 212 216 226 228 228 229 232 230 225 228 229 222 225 231 229 231 242 241 233 227 224 224 225 226 230 231 230 227 220 217 225 229 229 229
321 321 312 308 316 323 328 332 329 329 328 325 323 320 319 315 314 312 311 313 299 290 286 277 279 281 279 279 271 272 283 282 274 278 283 270 254 234 225 221 216 215 217 216 216 224 225 226 227 218 213 215 214 218 220 219 227 232 229 228 228 231 231 231 234 230 229 233 227 224 236 241 231 227 225 221 222 224 227 230 229 227 224 223 226 225 224 228
321 322 315 307 312 319 325 328 326 327 326 323 322 320 317 313 313 313 312 307 261 264 271 269 276 275 273 278 287 307 313 292 281 274 274 273 257 239 234 234 228 220 221 221 222 229 227 225 232 220 210 219 222 225 224 219 226 234 233 230 228 230 234 233 232 233 233 236 228 219 227 242 234 227 227 223 222 223 226 230 229 228 229 227 225 225 224 224
321 324 320 309 310 314 320 323 322 323 321 319 320 319 319 319 323 326 314 271 224 240 253 241 246 267 280 281 285 306 277 259 292 280 264 267 262 249 232 229 234 228 218 215 224 231 224 219 225 218 212 220 224 226 223 217 224 232 234 234 230 228 231 233 234 236 237 244 240 218 222 242 242 230 226 223 222 222 223 229 231 229 230 229 227 228 225 224
321 325 325 314 312 314 316 320 319 319 319 320 320 322 328 330 336 347 310 257 224 226 238 231 241 267 289 299 297 284 240 252 266 268 270 267 259 256 236 222 232 235 221 218 227 232 223 221 223 218 215 220 224 226 222 217 223 230 233 237 231 227 230 232 236 241 241 245 243 225 216 236 243 232 225 220 221 221 220 225 230 231 231 228 227 229 226 226
323 328 330 322 320 318 318 321 318 317 319 318 321 329 335 338 347 352 257 259 248 235 238 243 264 286 310 321 319 313 300 285 240 248 269 265 256 256 243 233 232 230 225 226 233 234 228 230 228 223 221 223 224 224 219 218 223 227 233 241 234 230 231 231 234 240 242 243 242 231 219 229 243 232 223 218 219 218 217 221 227 231 232 229 228 229 228 227
326 329 332 329 327 325 324 323 317 315 316 316 322 328 332 339 338 271 239 227 216 239 246 263 285 310 345 357 332 321 318 315 290 276 282 269 262 256 250 251 243 235 234 234 237 236 236 241 232 225 226 224 224 224 222 221 223 226 232 236 236 232 228 229 231 234 241 242 239 234 228 232 246 235 223 221 221 218 216 219 223 227 231 232 230 229 229 226
328 328 330 332 332 330 328 322 315 311 312 315 318 324 335 340 293 252 253 226 224 269 275 296 309 317 336 350 329 319 322 321 310 319 353 299 281 263 255 260 252 244 240 237 239 237 234 236 230 224 224 220 220 225 227 224 221 223 227 226 228 226 219 222 224 224 233 242 236 234 232 234 242 238 228 225 225 221 219 220 220 222 227 233 232 230 230 225
330 328 330 332 331 330 325 317 309 302 305 307 309 322 335 312 254 237 254 241 242 273 186 251 324 323 335 349 329 317 328 334 324 307 245 203 260 257 237 228 233 239 239 234 235 234 232 233 232 229 224 217 216 220 222 221 218 220 220 215 217 216 208 211 215 217 228 238 235 231 229 234 241 241 234 229 226 224 223 221 220 219 223 232 234 231 231 227
331 328 328 328 327 327 322 313 302 293 293 293 299 321 310 274 252 225 229 242 226 197 200 257 313 325 339 1 334 329 330 324 334 337 272 202 220 258 244 237 233 231 248 254 241 235 233 230 229 229 226 216 212 214 215 213 213 215 211 208 211 211 204 208 210 218 230 232 229 228 230 238 243 244 238 231 226 223 222 218 218 219 221 230 234 232 232 228
330 327 328 328 327 326 321 311 302 292 283 282 293 293 248 250 257 240 224 236 237 240 267 288 315 331 336 347 336 347 360 320 328 1 341 252 215 231 255 253 237 225 246 263 254 245 240 233 223 221 221 215 211 213 215 213 214 215 210 209 215 216 213 211 212 221 229 232 223 217 223 236 238 238 235 229 226 225 223 214 211 215 217 225 231 231 230 228
332 330 329 328 326 324 322 314 308 299 282 279 273 243 243 251 267 252 212 213 252 259 285 298 320 336 307 334 349 349 6 333 335 359 352 232 216 215 236 261 242 228 234 249 251 246 245 250 236 215 214 212 212 215 214 215 219 214 208 212 217 217 221 229 232 233 235 243 223 207 213 224 224 227 219 215 222 224 225 222 217 218 219 220 224 226 228 228
334 333 330 330 329 329 329 324 321 313 291 272 240 228 242 243 220 176 214 220 231 254 298 306 320 332 276 311 4 352 350 336 339 356 272 235 237 234 239 249 243 231 219 231 252 252 245 248 246 222 215 212 214 215 211 212 218 210 205 213 217 215 222 234 241 242 242 251 230 211 218 225 230 245 234 217 219 221 223 227 228 230 229 224 221 221 225 227
336 336 334 336 335 331 330 328 325 317 300 242 214 219 227 238 232 228 235 233 231 259 297 301 281 292 300 305 328 348 347 335 330 343 284 251 238 239 253 256 248 237 217 220 239 257 258 254 250 236 224 217 214 214 211 211 217 216 209 211 214 215 224 232 238 238 233 241 231 219 226 227 226 241 235 222 223 223 222 224 226 230 231 228 225 224 225 225
342 341 336 338 336 328 330 328 326 336 359 148 206 222 215 230 240 236 240 240 235 273 293 261 277 303 294 300 315 329 339 330 326 325 286 253 243 252 262 256 252 247 225 215 227 253 266 264 259 244 227 224 216 213 216 217 218 224 225 215 207 209 216 219 225 234 229 233 235 225 229 232 226 226 222 217 219 222 224 225 223 224 226 225 225 227 228 225
348 344 337 338 338 334 338 338 351 30 73 155 198 220 208 212 239 239 243 245 229 265 287 259 277 299 285 305 315 316 329 322 323 322 283 245 244 261 267 256 258 260 236 218 226 255 261 263 266 244 220 225 222 215 218 218 214 221 235 234 218 215 215 213 219 231 236 239 239 224 224 230 230 228 229 224 214 215 221 225 225 223 221 222 222 224 227 226
351 350 340 339 347 346 351 359 9 36 157 197 203 212 205 207 237 243 242 239 228 251 274 268 273 276 283 307 310 306 319 316 309 302 284 268 251 269 276 264 261 263 249 234 237 258 258 251 258 248 223 226 224 216 217 217 210 212 223 229 221 216 218 219 222 226 232 244 246 228 224 229 229 224 223 222 213 213 220 224 226 225 221 221 221 222 226 225
356 354 342 345 354 355 2 4 354 29 153 195 210 215 214 213 223 242 244 240 242 261 261 252 260 273 283 292 302 304 304 303 296 283 282 270 247 266 279 269 270 272 259 250 244 252 254 249 252 250 240 236 228 220 219 222 218 214 218 221 218 215 216 218 221 221 226 237 240 238 244 228 211 203 210 217 220 222 229 229 229 227 222 219 219 222 226 227
359 352 347 353 358 3 16 7 350 66 128 166 197 212 219 221 217 225 248 244 237 264 273 270 265 268 277 281 291 300 295 291 284 275 273 264 251 263 271 273 283 290 287 273 247 246 249 251 254 249 246 246 235 223 222 227 230 230 224 219 218 219 218 218 221 220 223 231 235 241 248 231 200 163 176 192 209 219 227 231 231 230 225 221 218 219 225 228
1 352 352 359 3 12 37 40 31 62 119 169 177 207 213 212 220 224 245 245 236 261 273 270 274 273 275 279 282 289 291 285 277 268 263 262 257 254 261 279 293 296 305 284 250 254 253 247 253 253 254 254 240 229 228 231 236 236 227 218 217 218 218 222 231 231 229 227 223 228 239 232 228 218 200 202 212 219 227 228 228 227 223 222 221 218 222 226
360 355 355 3 10 22 60 81 63 64 85 105 101 170 212 224 240 232 259 253 237 256 275 260 261 266 274 283 279 278 284 282 275 267 264 261 257 258 267 287 294 289 297 261 237 252 253 242 248 254 256 247 234 232 233 229 232 234 226 220 221 220 219 227 238 240 238 230 224 224 226 228 234 234 231 235 232 232 239 237 235 232 222 217 216 215 219 223
2 360 356 2 13 30 60 77 73 74 81 87 87 76 358 272 253 235 249 270 246 248 264 259 256 258 269 283 277 269 268 268 270 272 270 261 259 268 279 286 283 273 269 261 248 253 255 247 249 253 247 231 221 226 226 221 228 232 224 223 227 225 223 229 234 231 230 230 231 232 228 222 222 218 225 234 232 232 241 241 240 237 227 217 206 204 209 215
5 4 0 2 10 24 45 60 64 71 76 78 78 53 34 355 288 258 250 269 266 262 261 262 265 264 270 281 278 274 270 264 267 272 275 275 273 272 272 273 277 271 267 269 264 258 256 248 245 250 252 252 263 296 292 260 267 241 224 225 230 227 225 228 232 230 226 228 232 233 235 232 219 211 224 226 221 222 217 214 216 210 219 220 214 213 216 216
2 359 3 11 15 20 32 45 49 57 61 67 79 48 31 30 351 303 264 258 272 280 273 271 274 270 273 280 279 279 279 272 271 274 279 283 281 275 271 271 276 274 271 276 267 250 252 253 248 250 255 259 269 282 287 286 284 266 249 245 237 227 225 226 230 228 226 234 234 226 232 237 228 227 232 204 203 215 215 212 217 215 215 218 213 216 223 223
1 354 0 13 18 19 30 40 46 49 47 55 75 55 37 34 20 357 308 281 281 289 281 278 284 284 285 287 279 276 279 277 275 276 275 279 281 281 281 277 274 275 273 269 257 240 241 254 255 255 259 261 266 272 275 275 271 266 265 261 252 242 230 226 229 227 225 233 233 224 229 233 230 235 229 204 203 219 228 229 233 236 241 237 215 209 213 219
1 356 359 9 18 25 35 40 44 45 44 60 70 41 35 38 23 9 343 326 302 287 288 283 288 294 297 295 284 274 276 278 276 273 272 278 283 283 283 280 273 271 267 255 251 246 245 254 259 263 266 265 263 267 269 268 266 263 261 258 255 256 243 230 228 225 224 229 232 234 239 232 229 233 222 208 207 220 235 244 244 247 253 248 234 217 209 212
3 0 1 10 21 31 36 38 46 44 42 65 72 18 16 31 14 0 344 332 309 288 295 289 286 294 299 300 294 285 281 280 278 279 281 282 281 277 277 278 268 259 261 254 247 246 246 252 260 271 275 271 264 265 266 262 260 261 259 256 254 253 244 233 228 223 225 229 230 234 238 237 241 241 228 220 223 231 241 250 251 254 259 250 237 225 217 219
8 6 9 21 32 35 34 35 46 47 37 48 46 356 1 10 355 353 350 333 320 302 297 292 288 295 300 303 302 296 289 282 278 281 283 277 274 271 266 265 259 253 257 254 246 240 239 251 263 270 275 274 268 264 261 256 256 257 255 251 248 246 239 228 221 217 220 224 223 225 230 234 244 248 241 238 240 242 248 255 255 256 258 253 245 234 227 227
13 11 19 35 44 40 38 38 38 39 26 18 11 354 358 0 347 350 351 332 329 315 301 301 298 295 297 296 293 293 291 288 284 284 282 277 274 272 267 265 262 258 254 251 249 243 237 245 254 261 270 275 274 265 255 252 251 248 245 242 236 233 229 222 216 213 215 216 215 217 222 229 239 245 246 246 247 248 253 258 257 255 254 252 247 241 237 235
Height
3159 3158 3157 3156 3155 3154 3153 3153 3152 3151 3150 3149 3148 3147 3146 3146 3145 3144 3143 3142 3142 3142 3141 3141 3141 3141 3141 3141 3141 3142 3142 3142 3142 3143 3143 3143 3143 3144 3144 3145 3146 3147 3149 3151 3152 3155 3157 3158 3160 3161 3162 3163 3164 3165 3166 3167 3169 3170 3171 3173 3174 3174 3173 3173 3173 3173 3173 3174 3172 3172 3173 3174 3175 3175 3176 3177 3177 3178 3178 3179 3180 3181 3181 3181 3181 3182 3184 3186
3158 3157 3156 3155 3154 3153 3152 3152 3151 3150 3149 3148 3147 3146 3146 3145 3144 3143 3142 3141 3141 3140 3140 3139 3139 3139 3139 3139 3140 3140 3140 3140 3141 3141 3141 3142 3142 3143 3143 3144 3146 3147 3148 3150 3152 3155 3157 3158 3160 3161 3163 3163 3164 3165 3165 3166 3168 3169 3171 3172 3174 3174 3173 3172 3172 3172 3172 3173 3172 3172 3173 3174 3175 3175 3176 3177 3178 3178 3179 3179 3180 3181 3181 3181 3181 3182 3184 3185
3157 3156 3155 3154 3153 3152 3151 3150 3149 3149 3148 3147 3146 3145 3145 3144 3143 3142 3141 3140 3139 3139 3138 3138 3137 3137 3137 3137 3138 3138 3138 3138 3139 3139 3140 3141 3141 3142 3143 3144 3145 3146 3148 3150 3152 3154 3156 3157 3159 3161 3162 3163 3164 3164 3165 3166 3167 3169 3170 3173 3174 3173 3172 3171 3171 3171 3171 3171 3172 3172 3173 3174 3175 3175 3176 3177 3178 3179 3179 3180 3180 3180 3181 3181 3181 3182 3183 3185
3156 3155 3154 3153 3152 3151 3150 3149 3148 3147 3147 3146 3145 3144 3143 3142 3142 3141 3140 3139 3138 3137 3137 3136 3136 3136 3136 3136 3136 3136 3137 3137 3137 3138 3139 3139 3140 3141 3142 3143 3144 3145 3147 3149 3151 3152 3154 3155 3157 3159 3161 3162 3163 3163 3164 3165 3167 3168 3169 3172 3173 3172 3172 3172 3171 3171 3171 3171 3171 3172 3172 3174 3175 3175 3176 3177 3179 3179 3180 3180 3180 3180 3180 3181 3181 3182 3183 3185
3155 3154 3153 3152 3150 3150 3149 3148 3146 3146 3145 3144 3143 3142 3141 3141 3140 3139 3138 3137 3136 3136 3135 3135 3135 3134 3134 3134 3134 3134 3135 3136 3135 3136 3137 3137 3138 3139 3141 3143 3143 3144 3145 3147 3149 3150 3152 3153 3155 3156 3158 3161 3162 3162 3163 3165 3167 3167 3168 3170 3171 3171 3172 3171 3171 3171 3171 3171 3171 3172 3172 3174 3174 3175 3176 3177 3179 3181 3180 3180 3179 3179 3180 3180 3181 3182 3183 3184
3153 3152 3151 3150 3149 3148 3147 3146 3145 3144 3144 3143 3142 3141 3140 3139 3138 3137 3136 3135 3135 3134 3134 3133 3133 3133 3133 3132 3132 3133 3134 3134 3133 3134 3135 3135 3136 3138 3140 3141 3141 3142 3143 3145 3147 3149 3150 3152 3154 3155 3157 3159 3160 3161 3163 3164 3165 3166 3167 3169 3170 3171 3171 3170 3171 3171 3171 3171 3171 3172 3172 3173 3174 3175 3175 3176 3179 3180 3179 3179 3178 3178 3179 3180 3181 3182 3183 3184
3152 3151 3150 3149 3148 3147 3146 3145 3144 3143 3142 3141 3140 3139 3138 3137 3136 3135 3134 3134 3133 3133 3132 3132 3132 3131 3131 3131 3131 3131 3131 3131 3131 3132 3133 3133 3135 3136 3138 3139 3140 3141 3142 3144 3145 3147 3149 3150 3153 3155 3157 3158 3159 3161 3162 3162 3163 3165 3167 3168 3169 3170 3170 3170 3170 3170 3171 3171 3171 3172 3172 3173 3173 3174 3175 3176 3177 3178 3177 3178 3178 3178 3179 3180 3181 3182 3183 3184
3151 3150 3149 3148 3147 3146 3145 3144 3143 3142 3141 3140 3139 3138 3136 3135 3134 3133 3133 3132 3132 3131 3131 3130 3130 3130 3129 3129 3129 3129 3129 3129 3130 3131 3131 3132 3133 3135 3136 3137 3138 3139 3141 3142 3144 3146 3148 3150 3152 3154 3156 3157 3159 3160 3160 3161 3163 3163 3165 3167 3168 3168 3169 3169 3169 3170 3170 3171 3171 3171 3172 3173 3173 3174 3174 3175 3176 3177 3176 3177 3177 3178 3179 3180 3181 3181 3182 3184
3150 3149 3148 3147 3146 3145 3144 3143 3142 3141 3140 3139 3137 3136 3135 3134 3133 3132 3131 3130 3130 3130 3129 3129 3128 3128 3128 3128 3128 3128 3127 3127 3129 3130 3130 3131 3132 3133 3135 3136 3137 3138 3140 3141 3143 3145 3147 3149 3152 3154 3156 3157 3158 3159 3159 3161 3163 3162 3163 3166 3166 3167 3168 3168 3169 3169 3170 3170 3171 3171 3172 3173 3173 3173 3174 3174 3175 3175 3176 3176 3177 3178 3179 3180 3181 3181 3182 3183
3148 3147 3146 3145 3144 3143 3142 3141 3140 3139 3138 3137 3136 3135 3133 3132 3131 3130 3130 3129 3128 3128 3128 3127 3126 3126 3126 3127 3126 3126 3125 3126 3127 3128 3128 3129 3130 3132 3133 3134 3135 3137 3138 3140 3142 3143 3146 3149 3152 3153 3155 3156 3156 3157 3158 3160 3162 3160 3161 3164 3165 3166 3166 3167 3168 3168 3169 3170 3170 3171 3172 3173 3173 3173 3174 3174 3174 3174 3175 3176 3177 3178 3179 3180 3181 3181 3182 3183
3146 3145 3144 3143 3143 3142 3141 3140 3139 3137 3136 3135 3134 3133 3132 3130 3129 3129 3128 3127 3127 3126 3126 3126 3125 3124 3124 3125 3125 3124 3123 3124 3125 3126 3127 3128 3129 3130 3131 3133 3134 3135 3137 3139 3141 3143 3145 3148 3150 3152 3153 3154 3155 3156 3156 3157 3159 3158 3160 3162 3163 3164 3165 3165 3166 3167 3168 3169 3170 3170 3172 3173 3172 3171 3173 3174 3173 3174 3175 3176 3177 3177 3178 3179 3180 3181 3182 3183
3144 3143 3143 3142 3141 3140 3139 3138 3137 3136 3134 3133 3132 3131 3130 3128 3128 3127 3126 3125 3125 3125 3125 3124 3124 3123 3123 3123 3123 3122 3122 3122 3123 3124 3125 3126 3127 3128 3130 3131 3132 3134 3135 3137 3139 3142 3144 3146 3148 3150 3152 3152 3154 3155 3154 3154 3156 3158 3159 3161 3163 3163 3164 3164 3165 3167 3168 3169 3169 3170 3170 3171 3170 3170 3172 3172 3172 3173 3174 3175 3176 3177 3178 3179 3179 3180 3181 3182
3142 3142 3141 3140 3140 3139 3138 3136 3136 3134 3133 3132 3130 3129 3128 3126 3126 3125 3124 3124 3123 3123 3123 3122 3122 3122 3121 3121 3120 3120 3120 3120 3121 3122 3123 3124 3125 3127 3128 3130 3131 3132 3133 3135 3137 3139 3141 3143 3146 3149 3150 3151 3154 3153 3152 3153 3155 3157 3158 3159 3162 3163 3162 3163 3164 3166 3167 3167 3168 3169 3169 3169 3170 3170 3171 3171 3171 3172 3173 3175 3176 3176 3177 3178 3179 3180 3180 3181
3141 3140 3139 3138 3138 3137 3136 3135 3134 3133 3132 3130 3129 3128 3126 3124 3124 3124 3123 3122 3121 3121 3121 3121 3120 3120 3120 3119 3119 3118 3118 3118 3118 3119 3121 3122 3123 3125 3127 3128 3130 3131 3133 3134 3135 3136 3138 3141 3144 3147 3147 3149 3151 3150 3151 3154 3154 3156 3158 3158 3160 3161 3161 3162 3163 3164 3165 3166 3166 3168 3168 3168 3169 3170 3170 3170 3170 3172 3173 3174 3175 3176 3177 3178 3179 3179 3180 3181
3139 3138 3138 3136 3135 3135 3133 3132 3132 3131 3130 3129 3127 3126 3124 3123 3122 3122 3121 3120 3120 3120 3119 3119 3119 3118 3118 3118 3117 3116 3116 3116 3117 3117 3118 3120 3121 3123 3124 3127 3128 3130 3132 3132 3133 3135 3136 3139 3142 3143 3145 3147 3148 3149 3152 3154 3154 3155 3156 3156 3158 3159 3160 3161 3161 3162 3164 3165 3165 3166 3167 3167 3168 3169 3169 3169 3169 3171 3172 3173 3174 3175 3176 3177 3178 3179 3180 3181
3137 3136 3136 3134 3133 3132 3131 3130 3129 3129 3128 3126 3125 3124 3123 3121 3120 3120 3120 3119 3119 3118 3118 3118 3117 3117 3117 3116 3115 3115 3115 3115 3115 3116 3116 3118 3119 3120 3122 3124 3126 3128 3130 3131 3132 3134 3135 3137 3139 3141 3144 3145 3146 3149 3152 3152 3152 3153 3153 3154 3155 3157 3158 3159 3159 3160 3162 3164 3164 3164 3166 3166 3167 3168 3168 3168 3169 3170 3171 3172 3173 3174 3175 3176 3178 3179 3180 3181
3135 3135 3134 3132 3131 3130 3129 3128 3127 3126 3125 3124 3123 3122 3121 3119 3118 3118 3118 3117 3117 3117 3117 3117 3117 3116 3116 3115 3114 3114 3114 3113 3114 3114 3115 3116 3117 3119 3120 3122 3124 3126 3128 3130 3131 3132 3133 3135 3137 3139 3142 3143 3145 3148 3149 3148 3148 3150 3151 3152 3153 3154 3156 3157 3157 3158 3160 3162 3162 3162 3164 3165 3166 3167 3166 3166 3168 3169 3170 3171 3172 3173 3175 3176 3177 3178 3179 3180
3134 3133 3132 3130 3129 3127 3126 3125 3124 3123 3123 3122 3121 3120 3119 3118 3116 3116 3116 3116 3116 3116 3115 3116 3116 3116 3115 3114 3114 3113 3113 3113 3113 3113 3114 3114 3115 3117 3119 3120 3122 3124 3126 3128 3129 3130 3132 3133 3136 3138 3140 3140 3142 3144 3143 3143 3145 3147 3148 3149 3151 3152 3153 3154 3156 3156 3157 3159 3161 3161 3162 3163 3165 3166 3165 3165 3167 3168 3170 3171 3171 3172 3174 3175 3176 3177 3178 3180
3132 3131 3130 3129 3127 3125 3124 3123 3122 3121 3120 3120 3119 3118 3117 3116 3114 3114 3114 3114 3114 3114 3114 3114 3115 3115 3114 3113 3112 3112 3112 3112 3112 3112 3112 3113 3114 3115 3117 3119 3121 3123 3124 3126 3127 3128 3129 3132 3133 3134 3134 3134 3136 3138 3140 3142 3144 3145 3146 3147 3149 3150 3151 3152 3154 3155 3155 3157 3158 3159 3160 3161 3163 3164 3164 3165 3165 3167 3168 3170 3170 3171 3172 3173 3175 3176 3177 3179
3131 3129 3128 3127 3125 3123 3122 3121 3120 3119 3118 3118 3118 3117 3116 3115 3114 3113 3113 3113 3113 3113 3113 3113 3113 3113 3112 3111 3111 3110 3110 3111 3111 3111 3111 3112 3113 3114 3115 3117 3119 3121 3123 3124 3125 3126 3128 3129 3128 3127 3129 3132 3135 3137 3140 3143 3143 3143 3145 3146 3147 3148 3149 3151 3153 3153 3154 3155 3156 3157 3158 3159 3161 3162 3163 3164 3164 3165 3166 3168 3168 3169 3170 3171 3173 3175 3176 3178
3129 3127 3126 3125 3123 3122 3120 3119 3118 3117 3117 3117 3116 3116 3115 3114 3113 3112 3111 3111 3111 3111 3111 3111 3111 3110 3110 3110 3109 3109 3109 3109 3110 3110 3110 3111 3112 3113 3114 3116 3118 3119 3121 3124 3125 3125 3126 3126 3124 3126 3130 3134 3136 3137 3139 3141 3142 3142 3144 3145 3146 3147 3148 3149 3151 3152 3153 3153 3154 3155 3156 3157 3158 3160 3162 3162 3162 3163 3164 3165 3166 3167 3168 3170 3172 3174 3175 3177
3127 3125 3124 3123 3121 3120 3118 3117 3116 3116 3115 3115 3115 3114 3113 3113 3112 3111 3110 3109 3109 3108 3108 3108 3109 3108 3108 3108 3108 3108 3109 3109 3109 3109 3109 3110 3111 3113 3113 3114 3117 3118 3120 3122 3123 3124 3123 3122 3124 3127 3130 3133 3134 3135 3137 3139 3140 3141 3143 3144 3144 3145 3147 3148 3149 3150 3150 3151 3152 3154 3154 3154 3156 3157 3159 3160 3160 3161 3162 3163 3164 3165 3167 3168 3170 3172 3173 3175
3125 3124 3122 3121 3120 3118 3117 3115 3115 3114 3114 3113 3113 3112 3112 3111 3111 3110 3109 3108 3107 3107 3106 3106 3107 3107 3107 3107 3107 3107 3108 3108 3108 3108 3108 3109 3110 3111 3112 3114 3116 3118 3119 3119 3120 3121 3121 3121 3124 3127 3129 3130 3132 3133 3135 3137 3138 3139 3141 3142 3142 3143 3145 3146 3147 3147 3148 3149 3150 3152 3152 3152 3153 3154 3156 3157 3158 3159 3160 3161 3163 3163 3164 3166 3168 3170 3171 3173
3123 3122 3120 3119 3118 3117 3115 3114 3113 3113 3112 3112 3111 3110 3110 3109 3109 3108 3108 3107 3106 3105 3105 3105 3105 3105 3105 3105 3106 3106 3106 3107 3107 3107 3107 3108 3109 3110 3111 3113 3115 3117 3117 3117 3119 3119 3120 3122 3123 3126 3127 3128 3130 3131 3133 3135 3136 3137 3138 3139 3140 3142 3143 3144 3145 3145 3147 3148 3148 3151 3150 3148 3150 3151 3152 3154 3155 3156 3157 3158 3160 3161 3162 3164 3165 3167 3168 3170
3121 3120 3118 3117 3117 3115 3114 3113 3112 3111 3110 3110 3110 3109 3108 3108 3107 3107 3106 3106 3105 3103 3103 3104 3103 3104 3104 3104 3105 3105 3105 3105 3105 3106 3106 3106 3107 3108 3110 3111 3112 3115 3116 3116 3118 3118 3120 3121 3121 3123 3125 3125 3128 3130 3131 3133 3134 3135 3135 3136 3139 3141 3142 3143 3144 3144 3145 3144 3145 3148 3146 3142 3145 3147 3148 3150 3152 3152 3154 3155 3157 3158 3160 3161 3162 3164 3166 3168
3118 3117 3116 3115 3115 3114 3112 3111 3110 3110 3109 3108 3108 3108 3107 3107 3106 3106 3105 3106 3105 3102 3102 3103 3103 3103 3103 3103 3103 3103 3104 3104 3103 3104 3104 3105 3106 3107 3108 3109 3110 3113 3114 3115 3116 3115 3117 3119 3119 3120 3122 3123 3126 3128 3129 3132 3133 3133 3133 3134 3136 3139 3141 3141 3142 3143 3143 3141 3142 3144 3142 3138 3140 3142 3143 3147 3148 3149 3151 3152 3154 3156 3157 3159 3161 3163 3164 3166
3115 3115 3114 3113 3113 3112 3111 3110 3109 3108 3107 3107 3106 3106 3106 3105 3105 3104 3104 3104 3102 3101 3101 3102 3102 3101 3101 3102 3102 3103 3104 3103 3103 3103 3103 3104 3105 3105 3107 3109 3109 3110 3112 3113 3113 3111 3113 3116 3117 3117 3120 3122 3123 3125 3127 3130 3131 3130 3132 3134 3134 3136 3139 3139 3141 3141 3140 3141 3140 3140 3140 3138 3136 3137 3139 3142 3144 3146 3147 3148 3150 3153 3154 3156 3159 3161 3162 3164
3113 3113 3112 3111 3111 3110 3109 3109 3107 3106 3105 3105 3105 3104 3104 3103 3103 3103 3104 3101 3098 3099 3100 3100 3100 3100 3100 3100 3100 3101 3102 3102 3103 3102 3101 3102 3103 3103 3105 3107 3108 3109 3110 3110 3109 3109 3110 3112 3114 3115 3117 3119 3120 3123 3125 3127 3128 3129 3132 3133 3133 3135 3136 3138 3140 3139 3140 3140 3135 3135 3139 3136 3131 3133 3137 3138 3140 3141 3142 3145 3147 3149 3151 3154 3157 3159 3161 3162
3111 3111 3110 3110 3109 3108 3107 3106 3105 3104 3103 3102 3102 3102 3102 3102 3102 3102 3103 3100 3097 3098 3099 3099 3099 3099 3099 3099 3098 3098 3099 3100 3101 3100 3100 3101 3101 3102 3103 3104 3105 3106 3107 3107 3107 3109 3109 3109 3112 3114 3114 3115 3119 3121 3123 3125 3126 3128 3131 3131 3132 3133 3134 3137 3137 3137 3139 3135 3129 3131 3135 3131 3127 3129 3133 3133 3134 3136 3139 3142 3144 3146 3148 3151 3154 3156 3158 3160
3109 3109 3108 3108 3107 3106 3105 3104 3103 3101 3101 3100 3100 3100 3100 3100 3101 3101 3100 3098 3097 3098 3097 3098 3098 3098 3099 3100 3099 3097 3097 3098 3098 3098 3099 3099 3099 3100 3101 3101 3102 3103 3105 3105 3105 3106 3107 3108 3109 3110 3111 3113 3117 3119 3121 3123 3124 3127 3129 3130 3131 3131 3132 3134 3134 3136 3135 3126 3123 3128 3131 3130 3124 3122 3127 3129 3129 3133 3136 3139 3141 3143 3146 3148 3151 3154 3156 3157
3108 3107 3106 3106 3105 3104 3103 3102 3101 3099 3098 3098 3098 3099 3099 3099 3100 3100 3096 3096 3097 3097 3097 3097 3097 3097 3098 3099 3099 3097 3097 3097 3096 3097 3099 3099 3099 3099 3099 3100 3101 3101 3103 3102 3102 3103 3105 3105 3104 3106 3108 3111 3114 3117 3119 3121 3122 3125 3127 3128 3129 3128 3129 3130 3130 3133 3128 3118 3120 3126 3129 3129 3119 3115 3123 3126 3127 3131 3133 3136 3138 3140 3143 3144 3148 3151 3153 3155
3106 3105 3104 3103 3103 3102 3102 3100 3099 3098 3097 3096 3097 3097 3098 3099 3099 3097 3095 3096 3097 3096 3096 3097 3096 3096 3097 3097 3097 3096 3096 3096 3096 3096 3097 3099 3099 3098 3098 3099 3099 3100 3099 3098 3099 3100 3100 3101 3102 3104 3106 3108 3111 3114 3116 3118 3119 3121 3123 3126 3126 3123 3124 3124 3123 3123 3118 3115 3119 3123 3124 3122 3113 3113 3121 3123 3125 3128 3129 3132 3135 3138 3140 3141 3144 3148 3150 3152
3104 3103 3102 3102 3101 3100 3100 3098 3097 3097 3096 3096 3096 3096 3098 3099 3096 3094 3095 3096 3096 3095 3095 3095 3095 3095 3096 3097 3096 3095 3096 3095 3095 3095 3095 3097 3098 3097 3096 3096 3096 3098 3097 3096 3098 3097 3096 3097 3099 3101 3102 3103 3106 3109 3111 3112 3114 3116 3118 3120 3120 3116 3117 3118 3117 3115 3113 3113 3116 3120 3120 3115 3110 3113 3117 3119 3123 3125 3126 3129 3132 3135 3138 3139 3141 3144 3147 3149
3102 3101 3100 3099 3098 3098 3097 3096 3096 3095 3094 3094 3095 3096 3098 3097 3094 3093 3095 3095 3094 3093 3094 3094 3095 3095 3095 3096 3095 3094 3095 3094 3093 3094 3095 3096 3097 3097 3096 3094 3094 3096 3097 3097 3097 3095 3094 3092 3094 3096 3097 3098 3100 3103 3106 3109 3111 3112 3114 3116 3115 3112 3111 3112 3111 3109 3109 3109 3111 3116 3115 3109 3108 3109 3111 3115 3119 3121 3123 3126 3129 3132 3135 3136 3139 3141 3143 3145
3101 3099 3098 3097 3096 3095 3095 3094 3093 3093 3093 3092 3094 3096 3096 3094 3093 3094 3095 3094 3093 3094 3093 3093 3095 3096 3095 3095 3094 3093 3094 3094 3093 3094 3095 3095 3096 3096 3095 3093 3092 3094 3096 3096 3095 3094 3093 3090 3090 3092 3093 3095 3097 3100 3105 3108 3107 3108 3111 3112 3110 3110 3110 3109 3107 3106 3106 3105 3105 3107 3107 3105 3106 3107 3108 3112 3115 3117 3120 3122 3125 3128 3130 3133 3136 3138 3140 3141
3099 3097 3096 3094 3093 3092 3092 3092 3091 3091 3091 3091 3093 3095 3094 3092 3092 3093 3092 3092 3093 3093 3094 3093 3094 3095 3096 3095 3094 3093 3093 3093 3093 3093 3094 3094 3094 3094 3093 3091 3091 3092 3093 3094 3094 3093 3092 3090 3089 3090 3091 3094 3096 3098 3101 3103 3103 3104 3106 3105 3106 3110 3111 3108 3106 3105 3106 3103 3099 3100 3102 3103 3106 3105 3105 3109 3111 3114 3116 3117 3120 3123 3126 3130 3132 3134 3136 3138
3097 3095 3094 3093 3091 3090 3090 3090 3089 3089 3089 3090 3092 3092 3091 3090 3090 3090 3090 3091 3092 3092 3094 3094 3093 3094 3095 3095 3094 3094 3093 3092 3092 3092 3092 3092 3092 3092 3091 3091 3090 3090 3091 3092 3093 3093 3092 3089 3087 3089 3092 3093 3094 3096 3098 3099 3100 3100 3100 3102 3106 3109 3109 3107 3105 3103 3102 3099 3096 3097 3098 3099 3102 3101 3101 3104 3107 3109 3112 3114 3117 3119 3122 3125 3127 3130 3132 3135
3096 3094 3092 3092 3091 3089 3089 3088 3088 3087 3087 3089 3090 3090 3089 3089 3088 3088 3088 3090 3091 3092 3094 3094 3093 3093 3094 3094 3094 3093 3093 3092 3092 3092 3092 3092 3091 3090 3090 3090 3090 3089 3089 3090 3092 3093 3092 3089 3086 3088 3091 3090 3092 3094 3095 3096 3097 3097 3097 3100 3102 3101 3102 3104 3102 3099 3097 3094 3093 3094 3095 3095 3097 3097 3098 3100 3102 3105 3108 3111 3113 3116 3118 3121 3123 3126 3128 3131
3094 3092 3091 3091 3090 3088 3087 3086 3086 3086 3087 3089 3090 3088 3088 3088 3087 3087 3088 3089 3091 3092 3093 3093 3093 3093 3093 3093 3093 3092 3092 3092 3091 3091 3091 3090 3090 3088 3089 3089 3089 3088 3088 3089 3090 3091 3092 3090 3086 3086 3088 3089 3091 3091 3090 3090 3094 3096 3096 3096 3095 3095 3096 3098 3098 3096 3094 3091 3089 3090 3090 3091 3092 3094 3097 3099 3100 3103 3105 3107 3109 3112 3114 3117 3120 3123 3125 3128
3093 3092 3090 3089 3088 3087 3086 3085 3085 3085 3087 3088 3088 3087 3086 3087 3086 3086 3087 3088 3090 3091 3092 3093 3093 3093 3093 3092 3092 3092 3091 3091 3091 3091 3090 3090 3089 3088 3087 3087 3087 3087 3087 3087 3088 3089 3090 3090 3087 3085 3086 3087 3086 3085 3086 3087 3089 3092 3092 3091 3091 3092 3093 3094 3094 3094 3093 3089 3087 3087 3086 3086 3088 3091 3094 3096 3099 3101 3103 3105 3106 3108 3111 3114 3117 3119 3122 3124
3093 3091 3090 3088 3087 3085 3084 3084 3084 3085 3085 3085 3085 3085 3085 3086 3086 3086 3086 3087 3089 3090 3090 3091 3092 3092 3092 3092 3091 3091 3091 3091 3090 3090 3090 3089 3088 3087 3086 3085 3085 3085 3086 3087 3089 3089 3089 3088 3086 3084 3083 3083 3082 3083 3085 3085 3084 3086 3086 3086 3088 3089 3090 3089 3086 3087 3090 3088 3086 3086 3085 3084 3086 3088 3091 3094 3097 3099 3101 3103 3104 3106 3108 3111 3114 3116 3119 3121
3092 3091 3089 3087 3085 3084 3084 3084 3083 3083 3084 3084 3084 3084 3084 3085 3086 3086 3086 3087 3088 3089 3089 3090 3090 3091 3091 3091 3091 3090 3090 3090 3089 3089 3089 3087 3087 3087 3085 3083 3083 3084 3085 3086 3087 3087 3086 3086 3085 3082 3081 3080 3079 3079 3081 3080 3080 3080 3080 3082 3085 3086 3085 3084 3081 3083 3085 3085 3086 3087 3085 3084 3085 3087 3090 3092 3095 3097 3099 3101 3102 3104 3106 3108 3111 3114 3116 3118
3091 3090 3088 3086 3084 3082 3083 3085 3083 3082 3082 3082 3083 3083 3084 3085 3086 3086 3086 3087 3088 3088 3089 3089 3089 3089 3089 3089 3089 3089 3089 3088 3087 3087 3087 3086 3086 3086 3083 3082 3082 3083 3084 3085 3086 3085 3084 3084 3083 3081 3080 3079 3077 3076 3077 3077 3077 3076 3075 3078 3080 3081 3082 3082 3081 3081 3081 3080 3083 3085 3084 3084 3085 3087 3088 3091 3093 3095 3097 3099 3100 3102 3104 3107 3109 3111 3113 3116
3090 3089 3086 3085 3084 3082 3083 3084 3084 3083 3083 3082 3083 3084 3084 3084 3084 3085 3086 3086 3086 3087 3088 3088 3088 3088 3087 3087 3087 3087 3087 3086 3085 3085 3085 3085 3084 3083 3081 3081 3081 3082 3084 3084 3083 3083 3082 3082 3082 3080 3077 3075 3074 3074 3074 3075 3076 3074 3074 3076 3077 3077 3080 3080 3080 3080 3078 3076 3078 3080 3080 3082 3084 3085 3087 3089 3091 3094 3096 3097 3099 3100 3102 3105 3107 3109 3111 3113
3089 3088 3085 3083 3082 3082 3081 3081 3083 3084 3083 3083 3084 3084 3084 3084 3083 3083 3085 3084 3084 3085 3086 3086 3085 3085 3085 3085 3085 3085 3085 3085 3084 3083 3083 3083 3082 3081 3081 3080 3079 3081 3082 3080 3080 3080 3080 3080 3080 3078 3074 3069 3067 3069 3070 3072 3074 3073 3073 3075 3074 3075 3077 3077 3078 3078 3077 3078 3078 3076 3076 3080 3083 3084 3085 3088 3090 3093 3095 3096 3097 3098 3099 3100 3102 3105 3108 3110
3089 3088 3086 3083 3082 3081 3080 3080 3082 3083 3083 3083 3084 3084 3084 3084 3082 3082 3083 3083 3083 3083 3083 3084 3083 3083 3083 3082 3082 3082 3081 3082 3082 3081 3080 3080 3080 3080 3079 3078 3077 3078 3078 3078 3078 3078 3078 3078 3077 3076 3074 3068 3065 3068 3069 3070 3071 3071 3072 3073 3073 3072 3074 3075 3076 3074 3075 3078 3078 3076 3077 3079 3080 3082 3084 3086 3089 3091 3091 3092 3093 3095 3095 3097 3099 3102 3105 3108
3088 3087 3086 3085 3083 3082 3081 3081 3081 3082 3082 3082 3083 3083 3084 3084 3083 3082 3082 3082 3081 3081 3081 3081 3081 3081 3080 3080 3079 3079 3079 3079 3079 3079 3079 3078 3078 3078 3077 3076 3076 3075 3075 3076 3076 3076 3076 3075 3074 3074 3072 3068 3066 3068 3070 3070 3069 3069 3070 3071 3071 3070 3071 3072 3071 3072 3075 3077 3074 3076 3080 3079 3079 3082 3083 3084 3085 3086 3087 3089 3090 3092 3093 3095 3097 3100 3103 3105
3087 3086 3085 3084 3083 3083 3082 3081 3081 3081 3081 3082 3082 3083 3083 3083 3082 3081 3081 3081 3080 3080 3080 3079 3079 3079 3078 3078 3077 3077 3077 3077 3077 3077 3076 3076 3076 3075 3075 3074 3074 3073 3073 3074 3074 3074 3074 3073 3072 3072 3070 3068 3067 3067 3068 3069 3068 3067 3067 3067 3068 3068 3068 3069 3069 3071 3075 3074 3072 3075 3079 3078 3079 3081 3080 3080 3082 3083 3084 3086 3088 3089 3091 3093 3095 3098 3100 3102
3086 3085 3083 3083 3082 3081 3081 3080 3081 3082 3081 3081 3082 3082 3082 3082 3082 3081 3080 3080 3080 3079 3078 3078 3078 3077 3077 3076 3075 3075 3075 3075 3074 3074 3074 3073 3073 3073 3072 3072 3072 3071 3071 3072 3071 3071 3071 3070 3070 3070 3068 3067 3066 3064 3066 3067 3065 3064 3064 3064 3065 3065 3066 3066 3067 3070 3072 3072 3073 3075 3076 3077 3077 3076 3076 3078 3080 3080 3081 3083 3084 3086 3088 3090 3092 3094 3096 3098
3085 3084 3083 3082 3081 3080 3080 3080 3081 3082 3082 3081 3082 3081 3081 3081 3081 3080 3079 3079 3079 3078 3077 3077 3077 3075 3075 3074 3073 3073 3073 3073 3072 3071 3071 3071 3070 3070 3070 3069 3070 3070 3069 3069 3069 3069 3068 3068 3068 3068 3066 3064 3064 3063 3062 3063 3062 3061 3061 3061 3062 3062 3063 3064 3065 3067 3068 3069 3072 3074 3075 3075 3073 3072 3074 3077 3078 3078 3079 3080 3081 3083 3085 3087 3088 3090 3093 3095
3085 3084 3082 3081 3080 3080 3080 3081 3081 3082 3082 3081 3081 3081 3080 3080 3079 3078 3078 3077 3077 3076 3076 3075 3075 3074 3073 3073 3072 3071 3071 3070 3069 3068 3068 3068 3067 3067 3067 3066 3067 3067 3067 3067 3067 3066 3066 3066 3066 3067 3064 3061 3061 3061 3060 3060 3060 3058 3056 3058 3059 3060 3060 3060 3060 3062 3063 3065 3068 3071 3073 3073 3069 3069 3072 3075 3076 3078 3078 3078 3079 3080 3081 3084 3085 3087 3089 3092
3084 3083 3082 3081 3081 3081 3081 3081 3081 3082 3081 3081 3080 3080 3079 3079 3078 3077 3077 3076 3075 3075 3074 3073 3073 3073 3072 3072 3071 3070 3069 3068 3067 3066 3065 3064 3063 3063 3062 3062 3063 3063 3063 3064 3064 3063 3064 3064 3064 3065 3062 3059 3060 3059 3058 3059 3057 3051 3050 3053 3056 3057 3057 3056 3056 3058 3060 3062 3065 3067 3069 3069 3066 3065 3069 3073 3075 3077 3077 3077 3077 3078 3080 3082 3083 3085 3087 3089